User: anonymous   Login
Location: *
(46.4000°N, 12.6667°E)
Time: 12:34:58
(UTC+00:00)
Language:

Cosmos 2278 - Orbit

View from above orbital plane
View from above orbital plane
View from above satellite
View from above satellite

Ground track
Ground track

The orbit data is extracted from the following two-line orbital elements,

1 23087U 94023A   20192.10118533 -.00000252  00000-0 -10796-3 0  9991
2 23087  71.0512 180.3182 0010828 299.1129  60.8909 14.13802349352640
Epoch (UTC): 10 July 2020 02:25:42
Eccentricity: 0.0010828
inclination: 71.0512°
perigee height: 838 km
apogee height: 854 km
right ascension of ascending node: 180.3182°
argument of perigee: 299.1129°
revolutions per day: 14.13802349
mean anomaly at epoch: 60.8909°
orbit number at epoch: 35264

The dashed part of the orbit path shows where the satellite is in the earth's shadow,  

DLR